[[{"header":{"parameterUnit":"m.s-1","parameterCategory":1,"la1":30.2992,"la2":30.254,"lo1":-89.0895,"lo2":-89.0443,"dy":0.0025,"dx":0.0025,"nx":19,"ny":19,"refTime":"2026-03-28T09:00:00:Z","depth":0,"parameterNumber":2,"parameterNumberName":"U-component_of_WINDS"},"data":[0,0,0,-6.7724,-6.773,-6.7992,-6.7993,-6.8351,-6.8354,0,0,0,0,0,0,0,0,0,0,0,-6.7661,-6.7664,-6.7723,-6.773,-6.7992,-6.7993,-6.835,-6.8354,0,0,0,0,0,0,0,0,0,0,0,-6.766,-6.7663,-6.7667,-6.7731,-6.7992,-6.7993,-6.8349,-6.8143,0,0,0,0,0,0,0,0,0,0,-6.7884,-6.7842,-6.7662,-6.7667,-6.7733,-6.7992,-6.7994,-6.8133,-6.8156,-6.8242,0,-6.8324,0,-6.8345,-6.838,-6.8381,0,0,0,-6.7719,-6.7823,-6.788,-6.7668,-6.7736,-6.7992,-6.7871,-6.8145,-6.8172,-6.8273,-6.8329,-6.8341,-6.8351,-6.8382,-6.8384,-6.8919,-6.8922,0,0,-6.7704,-6.7716,-6.7862,-6.7898,-6.7861,-6.7862,-6.7879,-6.8161,-6.8222,-6.833,-6.8349,-6.8357,-6.8385,-6.8388,-6.8916,-6.892,0,0,0,-6.767,-6.7707,-6.7756,-6.7884,-6.7929,-6.787,-6.7889,-6.821,-6.8225,-6.8353,-6.8361,-6.8387,-6.8392,-6.8913,-6.8917,-6.9076,0,0,0,-6.7661,-6.7687,-6.7751,-6.7761,-6.7925,-6.8073,-6.7932,-6.8205,-6.8237,-6.8359,-6.8387,-6.8395,-6.8909,-6.8915,-6.9065,-6.9148,0,0,0,-6.7639,-6.7684,-6.7727,-6.7761,-6.7874,-6.8068,-6.81,-6.8212,-6.8243,-6.8381,-6.8396,-6.8907,-6.8914,-6.9054,-6.9131,-6.9289,0,0,0,-6.7618,-6.7867,-6.773,-6.8011,-6.7872,-6.8167,-6.8097,-6.8316,-6.8455,-6.8389,-6.891,-6.8917,-6.9051,-6.9121,-6.9278,-6.942,-6.9482,0,0,-6.7939,-6.7906,-6.8071,-6.7956,-6.8277,-6.8126,-6.847,-6.8586,-6.8588,-6.8808,-6.8821,-6.9068,-6.913,-6.9286,-6.9832,-6.9881,0,0,0,-6.8176,-6.8293,-6.8376,-6.8509,-6.8603,-6.8689,-6.8751,-6.8794,-6.8979,-6.8704,-6.917,-6.9207,-6.9298,-6.9365,-6.9406,-6.9481,-6.895,-6.8949,-6.8948,-6.8644,-6.8634,-6.8903,-6.8924,-6.9054,-6.9114,-6.9216,-6.9283,-6.9237,-6.9347,-6.941,-6.9743,-6.9822,-6.9853,-6.9932,-6.9489,-6.9489,-6.949,-6.949,-6.9108,-6.9271,-6.9202,-6.9437,-6.9425,-6.9622,-6.969,-6.965,-6.983,-6.9695,-6.9774,-6.9623,-6.9908,-6.9975,-6.9502,-6.95,-6.9499,-6.9498,-6.9497,-6.9409,-6.9485,-6.9533,-6.9721,-6.9867,-6.988,-7.0056,-7.0039,-7.0025,-7.0104,-7.0166,-7.0163,-7.0154,-7.0136,-7.0137,-7.0138,-7.0139,-7.014,-7.0141,-6.97,-6.975,-6.99,-7.0021,-7.0101,-7.0206,-7.0269,-7.0348,-7.043,-7.0404,-7.0404,-7.0343,-6.994,-6.9835,-7.0158,-7.0155,-7.0153,-7.0151,-7.015,-7.0166,-7.0057,-7.029,-7.0371,-7.0509,-7.0653,-7.063,-7.0792,-7.0855,-7.0941,-7.0865,-7.0571,-7.0535,-7.0502,-7.0415,-7.0869,-7.0869,-7.0869,-7.0869,-7.0415,-7.0397,-7.0628,-7.0759,-7.0885,-7.0887,-7.1146,-7.1198,-7.1233,-7.1271,-7.1204,-7.109,-7.1057,-7.1041,-7.0996,-7.0914,-7.1484,-7.1485,-7.1486,-7.0698,-7.0691,-7.0915,-7.0949,-7.1056,-7.1147,-7.1389,-7.1539,-7.1558,-7.151,-7.1299,-7.1273,-7.1088,-7.1029,-7.0971,-7.0902,-7.0752,0,0]},{"header":{"parameterUnit":"m.s-1","parameterCategory":1,"la1":30.2992,"la2":30.254,"lo1":-89.0895,"lo2":-89.0443,"dy":0.0025,"dx":0.0025,"nx":19,"ny":19,"refTime":"2026-03-28T09:00:00:Z","depth":0,"parameterNumber":3,"parameterNumberName":"V-component_of_WINDS"},"data":[0,0,0,1.6929,1.6929,1.694,1.694,1.6965,1.6965,0,0,0,0,0,0,0,0,0,0,0,1.6932,1.6932,1.6928,1.6929,1.694,1.694,1.6965,1.6965,0,0,0,0,0,0,0,0,0,0,0,1.6932,1.6932,1.6933,1.6929,1.694,1.694,1.6965,1.6953,0,0,0,0,0,0,0,0,0,0,1.694,1.6949,1.6932,1.6933,1.6929,1.694,1.694,1.6952,1.6953,1.6964,0,1.6976,0,1.6971,1.6968,1.6968,0,0,0,1.6924,1.6948,1.6945,1.6933,1.6929,1.694,1.6934,1.6953,1.6954,1.6967,1.6977,1.6977,1.6972,1.6968,1.6968,1.7048,1.7048,0,0,1.6923,1.6937,1.6944,1.6947,1.6946,1.6933,1.6934,1.6953,1.6965,1.6977,1.6978,1.6972,1.6968,1.6968,1.7047,1.7048,0,0,0,1.6925,1.6937,1.6933,1.6946,1.6947,1.6934,1.6935,1.6964,1.6962,1.6978,1.6972,1.6968,1.6969,1.7046,1.7047,1.7088,0,0,0,1.6924,1.6938,1.6933,1.6942,1.6947,1.6956,1.6945,1.6961,1.6962,1.6972,1.6968,1.6969,1.7046,1.7047,1.7086,1.7105,0,0,0,1.6929,1.6938,1.6942,1.6943,1.6948,1.6955,1.6954,1.6961,1.6959,1.6968,1.6969,1.7045,1.7047,1.7083,1.7101,1.7128,0,0,0,1.6938,1.698,1.6943,1.6989,1.6948,1.6982,1.6954,1.6978,1.699,1.6969,1.7046,1.7047,1.7083,1.7099,1.7125,1.7151,1.7163,0,0,1.6999,1.6988,1.7014,1.6981,1.7024,1.6979,1.7028,1.7027,1.7015,1.7037,1.7039,1.7087,1.7101,1.7127,1.7234,1.7244,0,0,0,1.7038,1.7056,1.7065,1.7077,1.7077,1.7077,1.7067,1.7066,1.7084,1.703,1.7105,1.7113,1.7127,1.7139,1.7147,1.7158,1.7054,1.7054,1.7053,1.7143,1.7126,1.7166,1.715,1.7163,1.7151,1.7159,1.7156,1.7136,1.7154,1.7159,1.7226,1.724,1.7246,1.7258,1.7174,1.7174,1.7174,1.7174,1.7229,1.7251,1.7223,1.7251,1.7233,1.7257,1.7248,1.7233,1.7252,1.7221,1.7233,1.7198,1.7258,1.7267,1.7177,1.7177,1.7176,1.7176,1.7176,1.7294,1.7301,1.7299,1.7314,1.7328,1.7311,1.733,1.7313,1.7298,1.731,1.7312,1.7311,1.7306,1.7313,1.7313,1.7313,1.7314,1.7314,1.7314,1.736,1.7357,1.7375,1.7378,1.7382,1.7387,1.7376,1.738,1.7381,1.7367,1.7367,1.7343,1.7268,1.7248,1.7317,1.7317,1.7316,1.7316,1.7316,1.7448,1.7425,1.7453,1.7457,1.7459,1.7472,1.7451,1.7461,1.7463,1.7472,1.7447,1.7395,1.7383,1.7376,1.7358,1.7452,1.7452,1.7452,1.7452,1.75,1.7492,1.7515,1.7524,1.7531,1.7514,1.7545,1.7537,1.7526,1.7525,1.751,1.7487,1.7481,1.7472,1.7463,1.7446,1.756,1.756,1.756,1.7551,1.7544,1.7573,1.7561,1.7561,1.7561,1.7588,1.7599,1.7581,1.7564,1.7524,1.7519,1.7482,1.7471,1.745,1.7436,1.7406,0,0]}]]